Location: Unspecified
(0.0000°N, 0.0000°E)
Time: 17:11:02
(UTC+00:00)

Vanguard 1 - Pass Details

Date: 06 October 2020
Orbit: 650 x 3833 km, 34.3° (Epoch: 26 October)

Event Time Altitude Azimuth Distance (km) Brightness Sun altitude
Rises 08:21:33 0° 232° (SW) 5,513 13.6 38.2°
Reaches altitude 10° 08:27:28 10° 211° (SSW) 5,156 13.6 39.6°
Maximum altitude 08:35:52 16° 178° (S) 5,442 14.1 41.7°
Drops below altitude 10° 08:46:25 10° 147° (SSE) 6,594 14.8 44.4°
Sets 08:56:28 0° 127° (SE) 7,942 15.3 46.8°
